| time (UTC) | temp F | wind direction | speed MPH | gust MPH | rain 1hr in | rain 24hr in | rain mn in | humidity % | barometer mb |
| 20260503230011 | 57 | 242 | 5.0 | 18.0 | 0.00 | 0.00 | 0.00 | 48 | 1011.0 |
| 20260503224510 | 57 | 240 | 5.0 | 16.0 | 0.00 | 0.00 | 0.00 | 48 | 1011.1 |
| 20260503223007 | 57 | 256 | 3.0 | 15.0 | 0.00 | 0.00 | 0.00 | 49 | 1011.2 |
| 20260503221505 | 57 | 259 | 4.0 | 14.0 | 0.00 | 0.00 | 0.00 | 48 | 1011.2 |
| 20260503220020 | 58 | 270 | 7.0 | 14.0 | 0.00 | 0.00 | 0.00 | 47 | 1011.2 |
| 20260503214502 | 58 | 201 | 6.0 | 15.0 | 0.00 | 0.00 | 0.00 | 48 | 1011.3 |
| 20260503213004 | 58 | 215 | 10.0 | 18.0 | 0.00 | 0.00 | 0.00 | 47 | 1011.3 |
| 20260503211501 | 57 | 207 | 6.0 | 18.0 | 0.00 | 0.00 | 0.00 | 48 | 1011.4 |
| 20260503210001 | 58 | 236 | 8.0 | 15.0 | 0.00 | 0.00 | 0.00 | 46 | 1011.4 |
| 20260503204559 | 58 | 232 | 2.0 | 22.0 | 0.00 | 0.00 | 0.00 | 47 | 1011.4 |
| 20260503203104 | 58 | 298 | 6.0 | 14.0 | 0.00 | 0.00 | 0.00 | 48 | 1011.4 |
| 20260503201558 | 59 | 261 | 6.0 | 16.0 | 0.00 | 0.00 | 0.00 | 46 | 1011.7 |
| 20260503200058 | 59 | 273 | 9.0 | 19.0 | 0.00 | 0.00 | 0.00 | 46 | 1011.8 |
| 20260503194553 | 58 | 244 | 5.0 | 13.0 | 0.00 | 0.00 | 0.00 | 48 | 1012.2 |
| 20260503193054 | 58 | 296 | 6.0 | 16.0 | 0.00 | 0.00 | 0.00 | 48 | 1012.5 |
| 20260503191550 | 59 | 269 | 7.0 | 18.0 | 0.00 | 0.00 | 0.00 | 47 | 1012.8 |
| 20260503190055 | 57 | 275 | 3.0 | 17.0 | 0.00 | 0.00 | 0.00 | 53 | 1012.9 |
| 20260503184555 | 58 | 234 | 8.0 | 16.0 | 0.00 | 0.00 | 0.00 | 47 | 1013.2 |
| 20260503183054 | 57 | 216 | 6.0 | 15.0 | 0.00 | 0.00 | 0.00 | 46 | 1013.4 |
| 20260503181541 | 57 | 281 | 4.0 | 14.0 | 0.00 | 0.00 | 0.00 | 50 | 1013.5 |
| 20260503180040 | 57 | 265 | 8.0 | 15.0 | 0.00 | 0.00 | 0.00 | 48 | 1013.6 |
| 20260503174536 | 56 | 221 | 7.0 | 18.0 | 0.00 | 0.00 | 0.00 | 52 | 1013.7 |
| 20260503173034 | 56 | 259 | 6.0 | 15.0 | 0.00 | 0.00 | 0.00 | 53 | 1013.9 |
| 20260503171532 | 55 | 298 | 6.0 | 18.0 | 0.00 | 0.00 | 0.00 | 53 | 1014.2 |
| 20260503081512 | 35 | 286 | 0.0 | 0.0 | 0.00 | 0.05 | 0.00 | 91 | 1015.4 |
| 20260503071508 | 36 | 288 | 0.0 | 0.0 | 0.00 | 0.07 | 0.00 | 91 | 1015.3 |
| 20260503060104 | 36 | 291 | 0.0 | 0.0 | 0.00 | 0.07 | 0.00 | 92 | 1015.6 |
| 20260503054604 | 36 | 291 | 0.0 | 0.0 | 0.00 | 0.10 | 0.00 | 91 | 1015.6 |
| 20260503053057 | 36 | 291 | 0.0 | 0.0 | 0.00 | 0.10 | 0.00 | 91 | 1015.6 |
| 20260503051557 | 37 | 291 | 0.0 | 0.0 | 0.00 | 0.10 | 0.00 | 90 | 1015.6 |
| 20260503050054 | 37 | 291 | 0.0 | 0.0 | 0.00 | 0.10 | 0.00 | 89 | 1015.7 |
| 20260503044553 | 38 | 291 | 0.0 | 0.0 | 0.00 | 0.17 | 0.00 | 87 | 1015.8 |
| 20260503043048 | 38 | 291 | 0.0 | 0.0 | 0.00 | 0.17 | 0.00 | 86 | 1015.7 |
| 20260503041548 | 39 | 291 | 0.0 | 0.0 | 0.00 | 0.17 | 0.00 | 84 | 1015.9 |
| 20260503040048 | 39 | 292 | 0.0 | 3.0 | 0.00 | 0.17 | 0.00 | 84 | 1015.9 |
| 20260503034549 | 39 | 360 | 0.0 | 0.0 | 0.00 | 0.18 | 0.17 | 85 | 1015.9 |
| 20260503033059 | 39 | 360 | 0.0 | 0.0 | 0.00 | 0.18 | 0.17 | 85 | 1016.0 |
| 20260503031553 | 39 | 360 | 0.0 | 0.0 | 0.00 | 0.18 | 0.17 | 84 | 1016.1 |
| 20260503030042 | 39 | 360 | 0.0 | 0.0 | 0.00 | 0.18 | 0.17 | 84 | 1016.1 |
| 20260503024552 | 39 | 360 | 0.0 | 0.0 | 0.00 | 0.18 | 0.17 | 83 | 1016.2 |
| 20260503023042 | 39 | 360 | 0.0 | 0.0 | 0.00 | 0.18 | 0.17 | 84 | 1016.4 |
| 20260503021541 | 39 | 360 | 0.0 | 0.0 | 0.00 | 0.18 | 0.17 | 84 | 1016.3 |
| 20260503020046 | 39 | 360 | 0.0 | 0.0 | 0.00 | 0.18 | 0.17 | 85 | 1016.3 |
| 20260503014543 | 39 | 360 | 0.0 | 0.0 | 0.00 | 0.18 | 0.17 | 84 | 1016.3 |
| 20260503013040 | 39 | 360 | 0.0 | 0.0 | 0.00 | 0.18 | 0.17 | 84 | 1016.2 |
| 20260503011543 | 39 | 360 | 0.0 | 0.0 | 0.00 | 0.18 | 0.17 | 84 | 1016.2 |
| 20260503010039 | 40 | 360 | 0.0 | 0.0 | 0.00 | 0.18 | 0.17 | 81 | 1016.2 |
| 20260503004543 | 40 | 360 | 0.0 | 0.0 | 0.00 | 0.18 | 0.17 | 77 | 1016.0 |
| 20260503003038 | 41 | 360 | 0.0 | 0.0 | 0.00 | 0.18 | 0.17 | 75 | 1016.0 |
| 20260503001539 | 41 | 360 | 0.0 | 0.0 | 0.00 | 0.18 | 0.17 | 72 | 1016.0 |
| 20260503000037 | 42 | 360 | 0.0 | 2.0 | 0.00 | 0.18 | 0.17 | 69 | 1015.9 |
| 20260502234537 | 42 | 360 | 1.0 | 5.0 | 0.00 | 0.18 | 0.17 | 66 | 1015.9 |
| 20260502233043 | 42 | 263 | 1.0 | 4.0 | 0.00 | 0.18 | 0.17 | 65 | 1015.8 |
| 20260502231554 | 42 | 13 | 0.0 | 3.0 | 0.00 | 0.18 | 0.17 | 66 | 1015.8 |